Starlink 2195

operational
NORAD ID: 47772 Int'l Des: 2021-017 Owner: SPXS Country: US Constellation: starlink
LEOCIRCULARSTARLINK_TYPE

About Starlink 2195

Description loading...

Live Position

Loading 3D Globe...

Upcoming Passes

Altitude History

Altitude vs Time

uPlot chart will show altitude changes over time

Two-Line Element Set

1 47772U 21017BC 25277.50821110 -.00000274 00000-0 51950-6 0 9999
2 47772 53.0527 202.7454 0001906 91.6683 268.4525 15.06392576254056
Epoch: Oct 4, 2025 • Age: 18 hours

Current Status

Altitude 554.5 km
Velocity 7.58 km/s
Sub-Earth Point -23.31°S, 75.68°W
Launch Date Mar 4, 2021
Age 4.5 years
Type internet

Technical Details

Classification Payload
Mass 260.00 kg
Dry Mass 248.00 kg
Total Mass 260.00 kg
Length 0.20 m
Diameter 2.80 m
Span 9.00 m
Shape Box + pan
Manufacturer SPXS
Bus Type Starlink
Phase Status In Orbit
Owner/State SPXS/US

Large Constellations

Loading constellations...